Time,TemperatureF,DewpointF,PressureIn,WindDirection,WindDirectionDegrees,WindSpeedMPH,WindSpeedGustMPH,Humidity,HourlyPrecipIn,Conditions,Clouds,dailyrainin,SoftwareType,DateUTC
2013-09-24 00:00:00,49.8,38.2,29.94,South,187,0.0,0.0,64,0.00,,SCT,0.00,VWS V14.01,2013-09-24 07:00:00,
2013-09-24 00:05:00,49.8,38.2,29.94,SSW,212,0.0,0.0,64,0.00,,SCT,0.00,VWS V14.01,2013-09-24 07:05:00,
2013-09-24 00:11:00,49.6,38.4,29.94,NW,314,0.0,0.0,65,0.00,,SCT,0.00,VWS V14.01,2013-09-24 07:11:00,
2013-09-24 00:15:00,49.6,38.4,29.94,WNW,287,0.0,0.0,65,0.00,,SCT,0.00,VWS V14.01,2013-09-24 07:15:00,
2013-09-24 00:16:00,49.6,38.4,29.94,WSW,256,0.0,0.0,65,0.00,,SCT,0.00,VWS V14.01,2013-09-24 07:16:00,
2013-09-24 00:21:00,49.3,38.8,29.94,SE,142,0.0,5.4,67,0.00,,SCT,0.00,VWS V14.01,2013-09-24 07:21:00,
2013-09-24 00:26:00,49.1,39.0,29.94,SE,129,3.6,7.6,68,0.00,,SCT,0.00,VWS V14.01,2013-09-24 07:26:00,
2013-09-24 00:30:00,48.9,39.2,29.94,SSW,206,3.1,7.6,69,0.00,,SCT,0.00,VWS V14.01,2013-09-24 07:30:00,
2013-09-24 00:31:00,48.9,39.2,29.94,West,260,0.0,3.6,69,0.00,,SCT,0.00,VWS V14.01,2013-09-24 07:31:00,
2013-09-24 00:36:00,48.7,39.4,29.94,South,171,3.1,5.8,70,0.00,,SCT,0.00,VWS V14.01,2013-09-24 07:36:00,
2013-09-24 00:41:00,48.7,39.4,29.94,SSW,213,0.0,6.3,70,0.00,,SCT,0.00,VWS V14.01,2013-09-24 07:41:00,
2013-09-24 00:45:00,48.7,39.8,29.94,SE,127,2.7,6.3,71,0.00,,SCT,0.00,VWS V14.01,2013-09-24 07:45:00,
2013-09-24 00:46:00,48.7,39.8,29.94,WSW,253,5.4,5.4,71,0.00,,SCT,0.00,VWS V14.01,2013-09-24 07:46:00,
2013-09-24 00:51:00,48.7,39.8,29.94,SW,224,0.0,5.4,71,0.00,,SCT,0.00,VWS V14.01,2013-09-24 07:51:00,
2013-09-24 00:56:00,48.7,39.8,29.94,SSW,207,0.0,5.4,71,0.00,,SCT,0.00,VWS V14.01,2013-09-24 07:56:00,
2013-09-24 01:00:00,48.7,39.4,29.94,NW,315,0.0,5.4,70,0.00,,SCT,0.00,VWS V14.01,2013-09-24 08:00:00,
2013-09-24 01:02:00,48.7,39.4,29.94,WNW,293,0.0,0.0,70,0.00,,SCT,0.00,VWS V14.01,2013-09-24 08:02:00,
2013-09-24 01:07:00,48.7,39.4,29.94,West,276,7.2,7.6,70,0.00,,SCT,0.00,VWS V14.01,2013-09-24 08:07:00,
2013-09-24 01:12:00,48.9,38.8,29.94,NW,308,3.6,7.6,68,0.00,,SCT,0.00,VWS V14.01,2013-09-24 08:12:00,
2013-09-24 01:15:00,49.1,39.0,29.94,WSW,242,5.4,7.6,68,0.00,,SCT,0.00,VWS V14.01,2013-09-24 08:15:00,
2013-09-24 01:17:00,49.1,39.0,29.94,WSW,256,0.0,5.4,68,0.00,,SCT,0.00,VWS V14.01,2013-09-24 08:17:00,
2013-09-24 01:22:00,49.1,39.0,29.91,West,273,0.0,5.4,68,0.00,,SCT,0.00,VWS V14.01,2013-09-24 08:22:00,
2013-09-24 01:27:00,49.1,39.0,29.91,SSW,199,0.0,5.4,68,0.00,,SCT,0.00,VWS V14.01,2013-09-24 08:27:00,
2013-09-24 01:30:00,49.1,39.0,29.91,SSW,199,0.0,5.4,68,0.00,,SCT,0.00,VWS V14.01,2013-09-24 08:30:00,
2013-09-24 01:32:00,49.1,39.4,29.91,SSE,161,4.0,4.0,69,0.00,,SCT,0.00,VWS V14.01,2013-09-24 08:32:00,
2013-09-24 01:37:00,48.9,39.6,29.94,SE,141,5.8,5.8,70,0.00,,SCT,0.00,VWS V14.01,2013-09-24 08:37:00,
2013-09-24 01:42:00,48.7,40.1,29.94,SE,146,8.7,9.6,72,0.00,,SCT,0.00,VWS V14.01,2013-09-24 08:42:00,
2013-09-24 01:45:00,48.6,40.3,29.94,South,191,4.9,10.5,73,0.00,,SCT,0.00,VWS V14.01,2013-09-24 08:45:00,
2013-09-24 01:47:00,48.6,40.3,29.94,SSW,197,3.6,6.3,73,0.00,,SCT,0.00,VWS V14.01,2013-09-24 08:47:00,
2013-09-24 01:52:00,48.4,40.5,29.91,SE,144,3.1,8.1,74,0.00,,SCT,0.00,VWS V14.01,2013-09-24 08:52:00,
2013-09-24 01:57:00,48.2,40.3,29.91,South,182,3.1,8.1,74,0.00,,SCT,0.00,VWS V14.01,2013-09-24 08:57:00,
2013-09-24 02:00:00,48.2,40.3,29.91,SSW,206,3.6,8.7,74,0.00,,SCT,0.00,VWS V14.01,2013-09-24 09:00:00,
2013-09-24 02:02:00,48.2,40.7,29.91,SSW,195,7.2,7.2,75,0.00,,SCT,0.00,VWS V14.01,2013-09-24 09:02:00,
2013-09-24 02:07:00,48.0,40.5,29.91,SSW,212,2.2,8.1,75,0.00,,SCT,0.00,VWS V14.01,2013-09-24 09:07:00,
2013-09-24 02:13:00,48.0,40.5,29.91,SSE,159,8.1,8.1,75,0.00,,SCT,0.00,VWS V14.01,2013-09-24 09:13:00,
2013-09-24 02:15:00,48.0,40.5,29.91,ESE,121,5.8,8.7,75,0.00,,SCT,0.00,VWS V14.01,2013-09-24 09:15:00,
2013-09-24 02:18:00,48.0,40.8,29.91,South,174,6.3,6.3,76,0.00,,SCT,0.00,VWS V14.01,2013-09-24 09:18:00,
2013-09-24 02:23:00,47.8,40.7,29.94,East,92,3.6,8.1,76,0.00,,SCT,0.00,VWS V14.01,2013-09-24 09:23:00,
2013-09-24 02:28:00,47.8,40.7,29.94,South,179,5.4,8.7,76,0.00,,SCT,0.00,VWS V14.01,2013-09-24 09:28:00,
2013-09-24 02:30:00,47.8,40.7,29.94,South,169,5.8,8.7,76,0.00,,SCT,0.00,VWS V14.01,2013-09-24 09:30:00,
2013-09-24 02:33:00,47.7,40.5,29.94,South,169,5.4,8.7,76,0.00,,SCT,0.00,VWS V14.01,2013-09-24 09:33:00,
2013-09-24 02:38:00,47.7,40.5,29.91,SSE,159,5.8,8.7,76,0.00,,SCT,0.00,VWS V14.01,2013-09-24 09:38:00,
2013-09-24 02:43:00,47.7,40.5,29.91,SW,233,0.0,8.7,76,0.00,,SCT,0.00,VWS V14.01,2013-09-24 09:43:00,
2013-09-24 02:45:00,47.7,40.5,29.91,ESE,118,0.0,8.7,76,0.00,,SCT,0.00,VWS V14.01,2013-09-24 09:45:00,
2013-09-24 02:48:00,47.7,40.5,29.91,West,266,0.0,0.0,76,0.00,,SCT,0.00,VWS V14.01,2013-09-24 09:48:00,
2013-09-24 02:53:00,47.7,40.5,29.91,West,277,0.0,3.1,76,0.00,,SCT,0.00,VWS V14.01,2013-09-24 09:53:00,
2013-09-24 02:58:00,47.7,40.5,29.91,WNW,292,0.0,3.1,76,0.00,,SCT,0.00,VWS V14.01,2013-09-24 09:58:00,
2013-09-24 03:00:00,47.7,40.5,29.91,NW,315,0.0,3.1,76,0.00,,SCT,0.00,VWS V14.01,2013-09-24 10:00:00,
2013-09-24 03:03:00,47.7,40.5,29.91,NW,314,0.0,0.0,76,0.00,,SCT,0.00,VWS V14.01,2013-09-24 10:03:00,
2013-09-24 03:08:00,47.7,40.1,29.91,NNW,327,0.0,0.0,75,0.00,,SCT,0.00,VWS V14.01,2013-09-24 10:08:00,
2013-09-24 03:13:00,47.5,40.0,29.91,West,280,0.0,0.0,75,0.00,,SCT,0.00,VWS V14.01,2013-09-24 10:13:00,
2013-09-24 03:15:00,47.5,40.0,29.91,West,269,0.0,0.0,75,0.00,,SCT,0.00,VWS V14.01,2013-09-24 10:15:00,
2013-09-24 03:18:00,47.1,39.6,29.91,West,268,0.0,0.0,75,0.00,,SCT,0.00,VWS V14.01,2013-09-24 10:18:00,
2013-09-24 03:23:00,46.9,39.8,29.91,West,279,0.0,0.0,76,0.00,,SCT,0.00,VWS V14.01,2013-09-24 10:23:00,
2013-09-24 03:29:00,46.6,39.4,29.91,SW,230,0.0,0.0,76,0.00,,SCT,0.00,VWS V14.01,2013-09-24 10:29:00,
2013-09-24 03:30:00,46.6,39.4,29.91,SW,230,0.0,0.0,76,0.00,,SCT,0.00,VWS V14.01,2013-09-24 10:30:00,
2013-09-24 03:34:00,46.4,39.6,29.91,SW,230,0.0,0.0,77,0.00,,SCT,0.00,VWS V14.01,2013-09-24 10:34:00,
2013-09-24 03:39:00,46.2,39.8,29.91,SW,230,0.0,0.0,78,0.00,,SCT,0.00,VWS V14.01,2013-09-24 10:39:00,
2013-09-24 03:44:00,46.2,40.1,29.91,WNW,296,0.0,0.0,79,0.00,,SCT,0.00,VWS V14.01,2013-09-24 10:44:00,
2013-09-24 03:45:00,46.2,40.1,29.91,WNW,296,0.0,0.0,79,0.00,,SCT,0.00,VWS V14.01,2013-09-24 10:45:00,
2013-09-24 03:49:00,46.0,39.9,29.91,WNW,298,0.0,0.0,79,0.00,,SCT,0.00,VWS V14.01,2013-09-24 10:49:00,
2013-09-24 03:54:00,46.2,40.1,29.91,SW,234,0.0,0.0,79,0.00,,SCT,0.00,VWS V14.01,2013-09-24 10:54:00,
2013-09-24 03:59:00,46.2,40.1,29.91,SW,225,0.0,3.1,79,0.00,,SCT,0.00,VWS V14.01,2013-09-24 10:59:00,
2013-09-24 04:00:00,46.2,40.1,29.91,SW,232,0.0,3.1,79,0.00,,SCT,0.00,VWS V14.01,2013-09-24 11:00:00,
2013-09-24 04:04:00,46.2,40.1,29.91,West,271,0.0,0.0,79,0.00,,SCT,0.00,VWS V14.01,2013-09-24 11:04:00,
2013-09-24 04:09:00,46.2,40.1,29.91,West,271,0.0,0.0,79,0.00,,SCT,0.00,VWS V14.01,2013-09-24 11:09:00,
2013-09-24 04:14:00,46.4,39.9,29.91,WSW,238,0.0,0.0,78,0.00,,SCT,0.00,VWS V14.01,2013-09-24 11:14:00,
2013-09-24 04:15:00,46.4,39.9,29.91,WSW,238,0.0,0.0,78,0.00,,SCT,0.00,VWS V14.01,2013-09-24 11:15:00,
2013-09-24 04:19:00,46.4,40.2,29.91,WNW,283,0.0,0.0,79,0.00,,SCT,0.00,VWS V14.01,2013-09-24 11:19:00,
2013-09-24 04:24:00,46.6,40.4,29.91,South,169,0.0,0.0,79,0.00,,SCT,0.00,VWS V14.01,2013-09-24 11:24:00,
2013-09-24 04:30:00,46.6,40.4,29.91,WSW,248,0.0,0.0,79,0.00,,SCT,0.00,VWS V14.01,2013-09-24 11:30:00,
2013-09-24 04:35:00,46.6,40.1,29.91,SSE,152,0.0,0.0,78,0.00,,SCT,0.00,VWS V14.01,2013-09-24 11:35:00,
2013-09-24 04:40:00,46.6,40.1,29.91,SSE,152,0.0,0.0,78,0.00,,SCT,0.00,VWS V14.01,2013-09-24 11:40:00,
2013-09-24 04:45:00,46.6,40.1,29.91,South,175,3.6,3.6,78,0.00,,SCT,0.00,VWS V14.01,2013-09-24 11:45:00,
2013-09-24 04:50:00,46.6,40.1,29.91,East,90,0.0,3.6,78,0.00,,SCT,0.00,VWS V14.01,2013-09-24 11:50:00,
2013-09-24 04:56:00,46.6,40.1,29.91,NW,321,0.0,3.6,78,0.00,,SCT,0.00,VWS V14.01,2013-09-24 11:56:00,
2013-09-24 05:00:00,46.6,40.1,29.91,NW,321,0.0,3.6,78,0.00,,SCT,0.00,VWS V14.01,2013-09-24 12:00:00,
2013-09-24 05:01:00,46.6,40.1,29.91,NW,321,0.0,0.0,78,0.00,,SCT,0.00,VWS V14.01,2013-09-24 12:01:00,
2013-09-24 05:06:00,46.4,39.9,29.88,SSE,154,0.0,0.0,78,0.00,,SCT,0.00,VWS V14.01,2013-09-24 12:06:00,
2013-09-24 05:11:00,46.4,40.2,29.88,SSE,155,0.0,0.0,79,0.00,,SCT,0.00,VWS V14.01,2013-09-24 12:11:00,
2013-09-24 05:15:00,46.4,39.9,29.88,SSE,155,0.0,0.0,78,0.00,,SCT,0.00,VWS V14.01,2013-09-24 12:15:00,
2013-09-24 05:16:00,46.4,39.9,29.88,WNW,299,0.0,0.0,78,0.00,,SCT,0.00,VWS V14.01,2013-09-24 12:16:00,
2013-09-24 05:21:00,46.4,39.9,29.88,WNW,282,0.0,0.0,78,0.00,,SCT,0.00,VWS V14.01,2013-09-24 12:21:00,
2013-09-24 05:26:00,46.4,39.9,29.88,NW,311,0.0,0.0,78,0.00,,SCT,0.00,VWS V14.01,2013-09-24 12:26:00,
2013-09-24 05:30:00,46.4,39.9,29.88,WNW,283,0.0,0.0,78,0.00,,SCT,0.00,VWS V14.01,2013-09-24 12:30:00,
2013-09-24 05:31:00,46.4,39.9,29.88,WNW,284,0.0,0.0,78,0.00,,SCT,0.00,VWS V14.01,2013-09-24 12:31:00,
2013-09-24 05:36:00,46.4,39.9,29.88,WNW,284,0.0,0.0,78,0.00,,SCT,0.00,VWS V14.01,2013-09-24 12:36:00,
2013-09-24 05:41:00,46.4,39.9,29.88,WNW,284,0.0,0.0,78,0.00,,SCT,0.00,VWS V14.01,2013-09-24 12:41:00,
2013-09-24 05:45:00,46.2,40.1,29.88,SSW,194,0.0,0.0,79,0.00,,SCT,0.00,VWS V14.01,2013-09-24 12:45:00,
2013-09-24 05:46:00,46.2,40.1,29.88,SW,234,0.0,0.0,79,0.00,,SCT,0.00,VWS V14.01,2013-09-24 12:46:00,
2013-09-24 05:52:00,46.0,40.2,29.88,South,178,0.0,5.8,80,0.00,,SCT,0.00,VWS V14.01,2013-09-24 12:52:00,
2013-09-24 05:57:00,45.9,40.4,29.88,SSW,206,5.4,5.8,81,0.00,,SCT,0.00,VWS V14.01,2013-09-24 12:57:00,
2013-09-24 06:00:00,45.9,40.4,29.88,South,179,0.0,5.8,81,0.00,,SCT,0.00,VWS V14.01,2013-09-24 13:00:00,
2013-09-24 06:02:00,45.9,40.4,29.88,South,190,0.0,0.0,81,0.00,,SCT,0.00,VWS V14.01,2013-09-24 13:02:00,
2013-09-24 06:07:00,45.7,40.5,29.88,SE,132,0.0,5.4,82,0.00,,SCT,0.00,VWS V14.01,2013-09-24 13:07:00,
2013-09-24 06:12:00,45.7,40.5,29.88,South,187,0.0,5.4,82,0.00,,SCT,0.00,VWS V14.01,2013-09-24 13:12:00,
2013-09-24 06:15:00,45.7,40.5,29.88,South,187,0.0,5.4,82,0.00,,SCT,0.00,VWS V14.01,2013-09-24 13:15:00,
2013-09-24 06:17:00,45.7,40.8,29.88,SE,145,2.7,4.9,83,0.00,,SCT,0.00,VWS V14.01,2013-09-24 13:17:00,
2013-09-24 06:22:00,45.5,40.7,29.88,SE,141,2.7,4.9,83,0.00,,SCT,0.00,VWS V14.01,2013-09-24 13:22:00,
2013-09-24 06:27:00,45.5,41.0,29.88,SSE,155,0.0,4.9,84,0.00,,SCT,0.00,VWS V14.01,2013-09-24 13:27:00,
2013-09-24 06:30:00,45.5,41.0,29.88,SE,124,5.4,5.8,84,0.00,,SCT,0.00,VWS V14.01,2013-09-24 13:30:00,
2013-09-24 06:32:00,45.5,41.0,29.88,East,85,3.6,7.2,84,0.00,,SCT,0.00,VWS V14.01,2013-09-24 13:32:00,
2013-09-24 06:37:00,45.5,41.3,29.88,South,172,0.0,7.2,85,0.00,,SCT,0.00,VWS V14.01,2013-09-24 13:37:00,
2013-09-24 06:42:00,45.5,41.3,29.88,South,177,0.0,7.2,85,0.00,,SCT,0.00,VWS V14.01,2013-09-24 13:42:00,
2013-09-24 06:45:00,45.5,41.6,29.88,ESE,121,0.0,7.2,86,0.00,,SCT,0.00,VWS V14.01,2013-09-24 13:45:00,
2013-09-24 06:47:00,45.5,41.6,29.88,SSE,159,5.4,5.4,86,0.00,,SCT,0.00,VWS V14.01,2013-09-24 13:47:00,
2013-09-24 06:53:00,45.3,41.4,29.88,SSE,163,0.0,5.4,86,0.00,,SCT,0.00,VWS V14.01,2013-09-24 13:53:00,
2013-09-24 06:58:00,45.3,41.7,29.88,South,170,0.0,5.4,87,0.00,,SCT,0.00,VWS V14.01,2013-09-24 13:58:00,
2013-09-24 07:00:00,45.1,41.5,29.88,SSE,157,0.0,5.4,87,0.00,,SCT,0.00,VWS V14.01,2013-09-24 14:00:00,
2013-09-24 07:03:00,45.1,41.8,29.88,South,169,0.0,0.0,88,0.00,,SCT,0.00,VWS V14.01,2013-09-24 14:03:00,
2013-09-24 07:08:00,45.0,41.6,29.88,South,178,0.0,0.0,88,0.00,,SCT,0.00,VWS V14.01,2013-09-24 14:08:00,
2013-09-24 07:13:00,45.0,41.9,29.88,West,278,0.0,0.0,89,0.00,,SCT,0.00,VWS V14.01,2013-09-24 14:13:00,
2013-09-24 07:15:00,45.0,41.9,29.88,West,279,0.0,0.0,89,0.00,,SCT,0.00,VWS V14.01,2013-09-24 14:15:00,
2013-09-24 07:18:00,45.0,41.9,29.88,West,281,0.0,0.0,89,0.00,,SCT,0.00,VWS V14.01,2013-09-24 14:18:00,
2013-09-24 07:23:00,44.8,41.7,29.88,SSW,199,3.1,4.0,89,0.00,,SCT,0.00,VWS V14.01,2013-09-24 14:23:00,
2013-09-24 07:28:00,45.0,41.9,29.88,SSE,162,0.0,4.0,89,0.00,,SCT,0.00,VWS V14.01,2013-09-24 14:28:00,
2013-09-24 07:30:00,45.0,41.9,29.88,SW,224,5.4,5.4,89,0.00,,SCT,0.00,VWS V14.01,2013-09-24 14:30:00,
2013-09-24 07:33:00,45.0,42.2,29.88,SSW,203,3.1,5.4,90,0.00,,SCT,0.00,VWS V14.01,2013-09-24 14:33:00,
2013-09-24 07:38:00,45.0,42.2,29.88,SSW,213,0.0,5.8,90,0.00,,SCT,0.00,VWS V14.01,2013-09-24 14:38:00,
2013-09-24 07:43:00,45.0,42.2,29.88,SSE,148,0.0,5.8,90,0.00,,SCT,0.00,VWS V14.01,2013-09-24 14:43:00,
2013-09-24 07:45:00,45.0,42.2,29.88,SSW,194,0.0,5.8,90,0.00,,SCT,0.00,VWS V14.01,2013-09-24 14:45:00,
2013-09-24 07:48:00,45.1,42.4,29.88,SSE,147,3.1,4.9,90,0.00,,SCT,0.00,VWS V14.01,2013-09-24 14:48:00,
2013-09-24 07:53:00,45.1,42.4,29.88,SSW,196,5.4,6.3,90,0.00,,SCT,0.00,VWS V14.01,2013-09-24 14:53:00,
2013-09-24 07:59:00,45.3,42.3,29.88,SSE,156,2.7,6.3,89,0.00,,SCT,0.00,VWS V14.01,2013-09-24 14:59:00,
2013-09-24 08:00:00,45.3,42.3,29.88,West,259,0.0,6.3,89,0.00,,SCT,0.00,VWS V14.01,2013-09-24 15:00:00,
2013-09-24 08:04:00,45.3,42.3,29.88,West,260,0.0,5.8,89,0.00,,SCT,0.00,VWS V14.01,2013-09-24 15:04:00,
2013-09-24 08:09:00,45.5,42.2,29.88,SW,220,0.0,5.8,88,0.00,,SCT,0.00,VWS V14.01,2013-09-24 15:09:00,
2013-09-24 08:14:00,45.7,42.3,29.88,WSW,237,0.0,5.8,88,0.00,,SCT,0.00,VWS V14.01,2013-09-24 15:14:00,
2013-09-24 08:15:00,45.7,42.0,29.88,West,263,2.2,5.8,87,0.00,,SCT,0.00,VWS V14.01,2013-09-24 15:15:00,
2013-09-24 08:19:00,45.9,42.2,29.88,West,273,0.0,6.3,87,0.00,,SCT,0.00,VWS V14.01,2013-09-24 15:19:00,
2013-09-24 08:24:00,45.9,42.2,29.88,WNW,288,0.0,6.3,87,0.00,,SCT,0.00,VWS V14.01,2013-09-24 15:24:00,
2013-09-24 08:29:00,46.0,42.4,29.88,NW,312,0.0,6.3,87,0.00,,SCT,0.00,VWS V14.01,2013-09-24 15:29:00,
2013-09-24 08:30:00,46.0,42.4,29.88,NW,312,0.0,6.3,87,0.00,,SCT,0.00,VWS V14.01,2013-09-24 15:30:00,
2013-09-24 08:34:00,46.2,42.9,29.88,NNW,338,0.0,0.0,88,0.00,,SCT,0.00,VWS V14.01,2013-09-24 15:34:00,
2013-09-24 08:39:00,46.2,42.9,29.88,NNW,334,0.0,0.0,88,0.00,,SCT,0.00,VWS V14.01,2013-09-24 15:39:00,
2013-09-24 08:44:00,46.4,43.0,29.88,NW,310,0.0,3.6,88,0.00,,SCT,0.00,VWS V14.01,2013-09-24 15:44:00,
2013-09-24 08:45:00,46.4,43.0,29.88,NW,310,0.0,3.6,88,0.00,,SCT,0.00,VWS V14.01,2013-09-24 15:45:00,
2013-09-24 08:49:00,46.4,43.3,29.88,NNW,341,0.0,0.0,89,0.00,,SCT,0.00,VWS V14.01,2013-09-24 15:49:00,
2013-09-24 08:54:00,46.8,44.0,29.88,West,271,0.0,0.0,90,0.00,,SCT,0.00,VWS V14.01,2013-09-24 15:54:00,
2013-09-24 09:00:00,46.8,43.7,29.88,WNW,298,0.0,0.0,89,0.00,,SCT,0.00,VWS V14.01,2013-09-24 16:00:00,
2013-09-24 09:05:00,46.9,43.6,29.88,NNW,342,3.6,5.4,88,0.00,,SCT,0.00,VWS V14.01,2013-09-24 16:05:00,
2013-09-24 09:10:00,46.9,43.6,29.88,NNW,333,0.0,5.8,88,0.00,,SCT,0.00,VWS V14.01,2013-09-24 16:10:00,
2013-09-24 09:15:00,46.9,43.9,29.88,North,349,0.0,5.8,89,0.00,,SCT,0.00,VWS V14.01,2013-09-24 16:15:00,
2013-09-24 09:20:00,46.8,44.0,29.88,NNW,334,0.0,0.0,90,0.00,,SCT,0.00,VWS V14.01,2013-09-24 16:20:00,
2013-09-24 09:25:00,46.9,44.5,29.88,NNW,335,0.0,0.0,91,0.00,,SCT,0.00,VWS V14.01,2013-09-24 16:25:00,
2013-09-24 09:30:00,46.9,44.7,29.88,NNW,333,0.0,0.0,92,0.00,,SCT,0.00,VWS V14.01,2013-09-24 16:30:00,
2013-09-24 09:35:00,46.9,44.7,29.88,NNW,336,0.0,2.7,92,0.00,,SCT,0.00,VWS V14.01,2013-09-24 16:35:00,
2013-09-24 09:40:00,47.1,45.2,29.88,NNW,335,0.0,2.7,93,0.00,,SCT,0.00,VWS V14.01,2013-09-24 16:40:00,
2013-09-24 09:45:00,47.3,45.4,29.88,NNW,335,0.0,0.0,93,0.00,,SCT,0.00,VWS V14.01,2013-09-24 16:45:00,
2013-09-24 09:50:00,47.3,45.1,29.88,NNW,335,0.0,0.0,92,0.00,,SCT,0.00,VWS V14.01,2013-09-24 16:50:00,
2013-09-24 09:55:00,47.3,44.2,29.88,SSE,167,0.0,0.0,89,0.00,,SCT,0.00,VWS V14.01,2013-09-24 16:55:00,
2013-09-24 10:00:00,47.1,42.8,29.88,South,173,0.0,5.4,85,0.00,,SCT,0.00,VWS V14.01,2013-09-24 17:00:00,
2013-09-24 10:01:00,47.1,42.5,29.88,SSE,153,0.0,0.0,84,0.00,,SCT,0.00,VWS V14.01,2013-09-24 17:01:00,
2013-09-24 10:06:00,47.1,41.0,29.88,SW,231,4.9,4.9,79,0.00,,SCT,0.00,VWS V14.01,2013-09-24 17:06:00,
2013-09-24 10:11:00,46.9,35.8,29.88,SSW,192,5.4,5.8,65,0.00,,SCT,0.00,VWS V14.01,2013-09-24 17:11:00,
2013-09-24 10:15:00,47.1,34.8,29.88,WSW,247,4.0,6.3,62,0.00,,SCT,0.00,VWS V14.01,2013-09-24 17:15:00,
2013-09-24 10:16:00,47.1,34.8,29.88,SSW,192,2.7,5.4,62,0.00,,SCT,0.00,VWS V14.01,2013-09-24 17:16:00,
2013-09-24 10:21:00,47.3,33.7,29.88,SE,137,5.4,8.3,59,0.00,,SCT,0.00,VWS V14.01,2013-09-24 17:21:00,
2013-09-24 10:26:00,47.3,32.4,29.88,West,260,5.8,10.1,56,0.00,,SCT,0.00,VWS V14.01,2013-09-24 17:26:00,
2013-09-24 10:30:00,47.5,33.0,29.88,SSW,211,7.6,10.1,57,0.00,,SCT,0.00,VWS V14.01,2013-09-24 17:30:00,
2013-09-24 10:31:00,47.5,33.0,29.88,SW,231,5.4,7.6,57,0.00,,SCT,0.00,VWS V14.01,2013-09-24 17:31:00,
2013-09-24 10:36:00,47.7,36.1,29.88,SSE,149,12.3,12.3,64,0.00,,SCT,0.00,VWS V14.01,2013-09-24 17:36:00,
2013-09-24 10:41:00,47.3,36.5,29.88,South,172,3.1,12.3,66,0.00,,SCT,0.00,VWS V14.01,2013-09-24 17:41:00,
2013-09-24 10:45:00,47.3,37.3,29.88,SE,141,4.5,12.3,68,0.00,,SCT,0.00,VWS V14.01,2013-09-24 17:45:00,
2013-09-24 10:47:00,47.3,36.9,29.88,SE,129,6.3,8.3,67,0.00,,SCT,0.00,VWS V14.01,2013-09-24 17:47:00,
2013-09-24 10:52:00,47.3,37.3,29.88,SE,127,7.6,8.7,68,0.00,,SCT,0.00,VWS V14.01,2013-09-24 17:52:00,
2013-09-24 10:57:00,47.7,36.9,29.88,SW,234,4.0,8.7,66,0.00,,SCT,0.00,VWS V14.01,2013-09-24 17:57:00,
2013-09-24 11:00:00,47.8,36.7,29.88,WSW,257,6.3,8.7,65,0.00,,SCT,0.00,VWS V14.01,2013-09-24 18:00:00,
2013-09-24 11:02:00,47.8,36.3,29.88,South,190,5.4,11.0,64,0.00,,SCT,0.00,VWS V14.01,2013-09-24 18:02:00,
2013-09-24 11:07:00,48.0,35.6,29.88,SE,131,8.7,11.0,62,0.00,,SCT,0.00,VWS V14.01,2013-09-24 18:07:00,
2013-09-24 11:12:00,47.7,35.3,29.88,SE,143,5.8,12.8,62,0.00,,SCT,0.00,VWS V14.01,2013-09-24 18:12:00,
2013-09-24 11:15:00,47.7,34.9,29.88,SSE,155,4.0,12.8,61,0.00,,SCT,0.00,VWS V14.01,2013-09-24 18:15:00,
2013-09-24 11:17:00,47.7,34.5,29.88,West,273,3.6,7.6,60,0.00,,SCT,0.00,VWS V14.01,2013-09-24 18:17:00,
2013-09-24 11:22:00,47.8,31.5,29.85,West,265,6.3,10.1,53,0.00,,SCT,0.00,VWS V14.01,2013-09-24 18:22:00,
2013-09-24 11:27:00,48.0,31.7,29.85,WNW,292,3.1,12.8,53,0.00,,SCT,0.00,VWS V14.01,2013-09-24 18:27:00,
2013-09-24 11:30:00,48.2,31.4,29.85,SW,223,3.6,12.8,52,0.00,,SCT,0.00,VWS V14.01,2013-09-24 18:30:00,
2013-09-24 11:33:00,48.4,32.0,29.85,WSW,244,8.3,8.3,53,0.00,,SCT,0.00,VWS V14.01,2013-09-24 18:33:00,
2013-09-24 11:38:00,48.6,31.3,29.85,WSW,245,8.3,8.7,51,0.00,,SCT,0.00,VWS V14.01,2013-09-24 18:38:00,
2013-09-24 11:43:00,48.7,31.4,29.85,SW,228,6.3,11.0,51,0.00,,SCT,0.00,VWS V14.01,2013-09-24 18:43:00,
2013-09-24 11:45:00,48.7,31.0,29.85,SSW,209,10.1,11.0,50,0.00,,SCT,0.00,VWS V14.01,2013-09-24 18:45:00,
2013-09-24 11:48:00,48.9,31.1,29.85,WSW,252,8.3,10.1,50,0.00,,SCT,0.00,VWS V14.01,2013-09-24 18:48:00,
2013-09-24 11:53:00,48.9,30.6,29.85,SW,227,6.3,13.2,49,0.00,,SCT,0.00,VWS V14.01,2013-09-24 18:53:00,
2013-09-24 11:58:00,48.9,30.6,29.85,WSW,248,4.0,13.2,49,0.00,,SCT,0.00,VWS V14.01,2013-09-24 18:58:00,
2013-09-24 12:00:00,48.7,30.5,29.85,NW,316,8.3,13.2,49,0.00,,SCT,0.00,VWS V14.01,2013-09-24 19:00:00,
2013-09-24 12:03:00,48.7,30.5,29.85,WNW,291,7.6,10.5,49,0.00,,SCT,0.00,VWS V14.01,2013-09-24 19:03:00,
2013-09-24 12:08:00,48.6,30.8,29.85,West,263,10.1,11.0,50,0.00,,SCT,0.00,VWS V14.01,2013-09-24 19:08:00,
2013-09-24 12:13:00,48.4,31.1,29.85,WSW,255,8.3,11.0,51,0.00,,SCT,0.00,VWS V14.01,2013-09-24 19:13:00,
2013-09-24 12:15:00,48.4,31.1,29.85,WNW,284,6.3,11.0,51,0.00,,SCT,0.00,VWS V14.01,2013-09-24 19:15:00,
2013-09-24 12:19:00,48.4,31.6,29.85,WNW,296,5.8,11.0,52,0.00,,SCT,0.00,VWS V14.01,2013-09-24 19:19:00,
2013-09-24 12:24:00,48.7,32.4,29.88,WNW,285,8.1,11.0,53,0.00,,SCT,0.00,VWS V14.01,2013-09-24 19:24:00,
2013-09-24 12:29:00,48.7,32.4,29.88,NW,310,6.3,11.0,53,0.00,,SCT,0.00,VWS V14.01,2013-09-24 19:29:00,
2013-09-24 12:30:00,48.9,32.1,29.88,West,274,13.2,13.2,52,0.00,,SCT,0.00,VWS V14.01,2013-09-24 19:30:00,
2013-09-24 12:34:00,48.9,32.6,29.88,WNW,286,5.8,13.2,53,0.00,,SCT,0.00,VWS V14.01,2013-09-24 19:34:00,
2013-09-24 12:39:00,48.9,32.1,29.88,SSW,192,3.1,13.2,52,0.00,,SCT,0.00,VWS V14.01,2013-09-24 19:39:00,
2013-09-24 12:44:00,49.5,32.1,29.88,NW,304,8.3,13.2,51,0.00,,SCT,0.00,VWS V14.01,2013-09-24 19:44:00,
2013-09-24 12:45:00,49.5,32.1,29.88,WSW,254,6.3,13.2,51,0.00,,SCT,0.00,VWS V14.01,2013-09-24 19:45:00,
2013-09-24 12:49:00,50.0,32.1,29.88,WNW,298,6.3,8.7,50,0.00,,SCT,0.00,VWS V14.01,2013-09-24 19:49:00,
2013-09-24 12:54:00,50.5,32.1,29.88,NW,311,3.6,8.7,49,0.00,,SCT,0.00,VWS V14.01,2013-09-24 19:54:00,
2013-09-24 12:59:00,51.1,32.6,29.88,NW,310,4.9,8.7,49,0.00,,SCT,0.00,VWS V14.01,2013-09-24 19:59:00,
2013-09-24 13:00:00,51.3,32.3,29.88,West,264,2.7,8.7,48,0.00,,SCT,0.00,VWS V14.01,2013-09-24 20:00:00,
2013-09-24 13:04:00,51.6,32.6,29.85,SSW,207,8.3,9.6,48,0.00,,SCT,0.00,VWS V14.01,2013-09-24 20:04:00,
2013-09-24 13:10:00,52.5,32.9,29.85,South,177,0.0,9.6,47,0.00,,SCT,0.00,VWS V14.01,2013-09-24 20:10:00,
2013-09-24 13:15:00,53.2,36.1,29.85,WSW,250,0.0,9.6,52,0.00,,SCT,0.00,VWS V14.01,2013-09-24 20:15:00,
2013-09-24 13:20:00,52.7,36.5,29.88,West,264,0.0,0.0,54,0.00,,SCT,0.00,VWS V14.01,2013-09-24 20:20:00,
2013-09-24 13:25:00,52.2,35.6,29.88,NNW,331,0.0,7.2,53,0.00,,SCT,0.00,VWS V14.01,2013-09-24 20:25:00,
2013-09-24 13:30:00,52.2,36.5,29.88,NNW,330,0.0,0.0,55,0.00,,SCT,0.00,VWS V14.01,2013-09-24 20:30:00,
2013-09-24 13:35:00,52.2,40.0,29.88,NNW,335,4.0,4.0,63,0.00,,SCT,0.00,VWS V14.01,2013-09-24 20:35:00,
2013-09-24 13:40:00,51.3,42.2,29.88,NW,323,0.0,6.3,71,0.00,,SCT,0.00,VWS V14.01,2013-09-24 20:40:00,
2013-09-24 13:45:00,50.9,42.9,29.88,NW,322,0.0,0.0,74,0.00,,SCT,0.00,VWS V14.01,2013-09-24 20:45:00,
2013-09-24 13:50:00,50.0,42.0,29.85,NW,316,0.0,0.0,74,0.00,,SCT,0.00,VWS V14.01,2013-09-24 20:50:00,
2013-09-24 13:56:00,49.5,43.2,29.85,NW,316,0.0,0.0,79,0.07,,SCT,0.07,VWS V14.01,2013-09-24 20:56:00,
2013-09-24 14:00:00,49.1,43.8,29.85,NW,309,0.0,0.0,82,0.13,,SCT,0.13,VWS V14.01,2013-09-24 21:00:00,
2013-09-24 14:01:00,49.1,43.8,29.85,NW,309,0.0,0.0,82,0.13,,SCT,0.13,VWS V14.01,2013-09-24 21:01:00,
2013-09-24 14:06:00,49.1,45.1,29.88,NW,309,0.0,0.0,86,0.20,,SCT,0.20,VWS V14.01,2013-09-24 21:06:00,
2013-09-24 14:11:00,49.6,46.5,29.88,WNW,292,0.0,0.0,89,0.20,,SCT,0.20,VWS V14.01,2013-09-24 21:11:00,
2013-09-24 14:15:00,50.0,46.9,29.88,SSE,148,0.0,0.0,89,0.20,,SCT,0.20,VWS V14.01,2013-09-24 21:15:00,
2013-09-24 14:16:00,50.0,46.9,29.88,SSE,148,0.0,0.0,89,0.20,,SCT,0.20,VWS V14.01,2013-09-24 21:16:00,
2013-09-24 14:21:00,50.7,47.6,29.85,SSE,149,0.0,0.0,89,0.20,,SCT,0.20,VWS V14.01,2013-09-24 21:21:00,
2013-09-24 14:26:00,50.9,46.9,29.85,SSE,149,0.0,0.0,86,0.20,,SCT,0.20,VWS V14.01,2013-09-24 21:26:00,
2013-09-24 14:30:00,51.4,47.1,29.85,SSE,149,0.0,0.0,85,0.20,,SCT,0.20,VWS V14.01,2013-09-24 21:30:00,
2013-09-24 14:31:00,51.4,47.1,29.85,SSE,149,0.0,0.0,85,0.20,,SCT,0.20,VWS V14.01,2013-09-24 21:31:00,
2013-09-24 14:36:00,51.4,46.1,29.85,SSE,150,0.0,0.0,82,0.20,,SCT,0.20,VWS V14.01,2013-09-24 21:36:00,
2013-09-24 14:41:00,51.6,45.7,29.85,SSE,150,0.0,0.0,80,0.20,,SCT,0.20,VWS V14.01,2013-09-24 21:41:00,
2013-09-24 14:45:00,51.4,44.8,29.85,SSE,150,0.0,0.0,78,0.20,,SCT,0.20,VWS V14.01,2013-09-24 21:45:00,
2013-09-24 14:46:00,51.4,44.1,29.85,SSE,150,0.0,0.0,76,0.20,,SCT,0.20,VWS V14.01,2013-09-24 21:46:00,
2013-09-24 14:51:00,51.6,44.7,29.88,NNE,14,0.0,0.0,77,0.20,,SCT,0.20,VWS V14.01,2013-09-24 21:51:00,
2013-09-24 14:57:00,51.4,43.8,29.88,NNW,339,0.0,0.0,75,0.20,,SCT,0.20,VWS V14.01,2013-09-24 21:57:00,
2013-09-24 15:00:00,51.3,43.6,29.88,NNE,17,0.0,3.6,75,0.20,,SCT,0.20,VWS V14.01,2013-09-24 22:00:00,
2013-09-24 15:02:00,51.3,43.3,29.88,SE,133,0.0,0.0,74,0.07,,SCT,0.20,VWS V14.01,2013-09-24 22:02:00,
2013-09-24 15:07:00,51.1,42.7,29.85,East,90,0.0,0.0,73,0.07,,SCT,0.20,VWS V14.01,2013-09-24 22:07:00,
2013-09-24 16:47:00,49.5,35.3,29.85,SSW,209,0.0,0.0,58,0.07,,SCT,0.20,VWS V14.01,2013-09-24 23:47:00,
2013-09-24 16:52:00,48.9,34.8,29.85,West,265,3.1,7.6,58,0.07,,SCT,0.20,VWS V14.01,2013-09-24 23:52:00,
2013-09-24 16:57:00,48.4,33.9,29.85,South,170,6.3,7.6,57,0.07,,SCT,0.20,VWS V14.01,2013-09-24 23:57:00,
2013-09-24 17:02:00,48.2,34.6,29.85,SSW,192,8.3,8.3,59,0.00,,SCT,0.20,VWS V14.01,2013-09-25 00:02:00,
2013-09-24 17:07:00,47.8,33.4,29.85,NW,311,5.4,8.3,57,0.00,,SCT,0.20,VWS V14.01,2013-09-25 00:07:00,
2013-09-24 17:12:00,47.7,33.6,29.85,SE,140,5.4,8.3,58,0.00,,SCT,0.20,VWS V14.01,2013-09-25 00:12:00,
2013-09-24 17:17:00,47.5,33.0,29.85,South,170,5.4,8.7,57,0.00,,SCT,0.20,VWS V14.01,2013-09-25 00:17:00,
2013-09-24 17:22:00,47.3,32.0,29.85,SSW,210,8.7,12.8,55,0.00,,SCT,0.20,VWS V14.01,2013-09-25 00:22:00,
2013-09-24 17:28:00,47.1,32.2,29.85,West,275,3.6,12.8,56,0.00,,SCT,0.20,VWS V14.01,2013-09-25 00:28:00,
2013-09-24 17:33:00,47.3,32.8,29.85,SSE,164,2.7,5.4,57,0.00,,SCT,0.20,VWS V14.01,2013-09-25 00:33:00,
2013-09-24 17:38:00,47.5,32.1,29.85,WSW,237,0.0,6.3,55,0.00,,SCT,0.20,VWS V14.01,2013-09-25 00:38:00,
2013-09-24 17:43:00,48.0,32.6,29.85,SE,138,5.4,8.1,55,0.00,,SCT,0.20,VWS V14.01,2013-09-25 00:43:00,
2013-09-24 17:48:00,48.4,32.5,29.85,West,260,5.4,9.6,54,0.00,,SCT,0.20,VWS V14.01,2013-09-25 00:48:00,
2013-09-24 17:53:00,48.2,32.3,29.85,SW,216,8.7,9.6,54,0.00,,SCT,0.20,VWS V14.01,2013-09-25 00:53:00,
2013-09-24 17:58:00,48.4,33.0,29.85,South,179,3.1,9.6,55,0.00,,SCT,0.20,VWS V14.01,2013-09-25 00:58:00,
2013-09-24 18:03:00,48.6,32.2,29.85,NE,52,5.8,10.5,53,0.00,,SCT,0.20,VWS V14.01,2013-09-25 01:03:00,
2013-09-24 18:08:00,48.0,32.6,29.85,SW,234,8.3,11.0,55,0.00,,SCT,0.20,VWS V14.01,2013-09-25 01:08:00,
2013-09-24 18:13:00,47.7,32.3,29.85,West,266,0.0,11.0,55,0.00,,SCT,0.20,VWS V14.01,2013-09-25 01:13:00,
2013-09-24 18:18:00,47.7,32.8,29.85,East,101,3.1,5.8,56,0.00,,SCT,0.20,VWS V14.01,2013-09-25 01:18:00,
2013-09-24 18:23:00,47.5,32.6,29.85,WNW,298,3.1,7.6,56,0.00,,SCT,0.20,VWS V14.01,2013-09-25 01:23:00,
2013-09-24 18:29:00,47.3,32.4,29.85,WNW,291,0.0,7.6,56,0.00,,SCT,0.20,VWS V14.01,2013-09-25 01:29:00,
2013-09-24 18:34:00,47.1,32.7,29.85,NNW,341,0.0,4.9,57,0.00,,SCT,0.20,VWS V14.01,2013-09-25 01:34:00,
2013-09-24 18:39:00,47.1,33.1,29.85,WNW,303,0.0,4.9,58,0.00,,SCT,0.20,VWS V14.01,2013-09-25 01:39:00,
2013-09-24 18:44:00,46.9,33.0,29.85,WNW,298,0.0,4.9,58,0.00,,SCT,0.20,VWS V14.01,2013-09-25 01:44:00,
2013-09-24 18:49:00,46.9,33.4,29.85,WNW,298,0.0,0.0,59,0.00,,SCT,0.20,VWS V14.01,2013-09-25 01:49:00,
2013-09-24 18:54:00,46.8,34.0,29.82,ESE,112,0.0,0.0,61,0.00,,SCT,0.20,VWS V14.01,2013-09-25 01:54:00,
2013-09-24 18:59:00,46.6,35.1,29.82,East,84,0.0,0.0,64,0.00,,SCT,0.20,VWS V14.01,2013-09-25 01:59:00,
2013-09-24 19:04:00,46.6,36.2,29.82,East,81,0.0,0.0,67,0.00,,SCT,0.20,VWS V14.01,2013-09-25 02:04:00,
2013-09-24 19:09:00,46.4,37.2,29.82,East,81,0.0,0.0,70,0.00,,SCT,0.20,VWS V14.01,2013-09-25 02:09:00,
2013-09-24 19:14:00,46.0,37.5,29.82,ESE,116,0.0,0.0,72,0.00,,SCT,0.20,VWS V14.01,2013-09-25 02:14:00,
2013-09-24 19:19:00,45.9,37.7,29.82,East,88,0.0,0.0,73,0.00,,SCT,0.20,VWS V14.01,2013-09-25 02:19:00,
2013-09-24 19:24:00,45.7,37.5,29.82,East,98,0.0,0.0,73,0.00,,SCT,0.20,VWS V14.01,2013-09-25 02:24:00,
2013-09-24 19:29:00,45.5,37.7,29.82,East,81,0.0,0.0,74,0.00,,SCT,0.20,VWS V14.01,2013-09-25 02:29:00,
2013-09-24 19:35:00,45.3,37.9,29.82,ENE,65,4.9,4.9,75,0.00,,SCT,0.20,VWS V14.01,2013-09-25 02:35:00,
2013-09-24 19:40:00,44.8,37.0,29.82,East,91,0.0,4.9,74,0.00,,SCT,0.20,VWS V14.01,2013-09-25 02:40:00,
2013-09-24 19:45:00,44.8,37.0,29.82,ENE,60,0.0,4.9,74,0.00,,SCT,0.20,VWS V14.01,2013-09-25 02:45:00,
2013-09-24 19:50:00,44.8,36.0,29.82,ESE,104,0.0,0.0,71,0.00,,SCT,0.20,VWS V14.01,2013-09-25 02:50:00,
2013-09-24 19:55:00,44.8,35.2,29.82,South,174,0.0,0.0,69,0.00,,SCT,0.20,VWS V14.01,2013-09-25 02:55:00,
2013-09-24 20:00:00,44.6,33.6,29.82,SW,229,2.7,3.6,65,0.00,,SCT,0.20,VWS V14.01,2013-09-25 03:00:00,
2013-09-24 20:05:00,44.6,32.8,29.82,SW,214,2.7,3.6,63,0.00,,SCT,0.20,VWS V14.01,2013-09-25 03:05:00,
2013-09-24 20:10:00,44.4,32.2,29.82,SSE,152,0.0,5.4,62,0.00,,SCT,0.20,VWS V14.01,2013-09-25 03:10:00,
2013-09-24 20:15:00,44.4,32.6,29.82,SSE,149,0.0,0.0,63,0.00,,SCT,0.20,VWS V14.01,2013-09-25 03:15:00,
2013-09-24 20:20:00,44.4,32.2,29.82,SW,215,0.0,0.0,62,0.00,,SCT,0.20,VWS V14.01,2013-09-25 03:20:00,
2013-09-24 20:25:00,44.4,32.6,29.82,SE,143,0.0,5.8,63,0.00,,SCT,0.20,VWS V14.01,2013-09-25 03:25:00,
2013-09-24 20:30:00,44.2,32.5,29.82,SE,128,3.1,3.6,63,0.00,,SCT,0.20,VWS V14.01,2013-09-25 03:30:00,
2013-09-24 20:35:00,44.2,32.8,29.82,South,169,0.0,6.3,64,0.00,,SCT,0.20,VWS V14.01,2013-09-25 03:35:00,
2013-09-24 20:41:00,44.2,34.0,29.82,ESE,105,0.0,6.3,67,0.00,,SCT,0.20,VWS V14.01,2013-09-25 03:41:00,
2013-09-24 20:46:00,44.2,34.4,29.82,ESE,104,0.0,0.0,68,0.00,,SCT,0.20,VWS V14.01,2013-09-25 03:46:00,
2013-09-24 20:51:00,44.1,35.6,29.82,ESE,104,0.0,0.0,72,0.00,,SCT,0.20,VWS V14.01,2013-09-25 03:51:00,
2013-09-24 20:56:00,43.7,36.0,29.82,ESE,104,0.0,0.0,74,0.00,,SCT,0.20,VWS V14.01,2013-09-25 03:56:00,
2013-09-24 21:01:00,43.5,35.8,29.82,East,84,0.0,0.0,74,0.00,,SCT,0.20,VWS V14.01,2013-09-25 04:01:00,
2013-09-24 21:02:00,43.5,35.8,29.82,SE,129,0.0,3.1,74,0.00,,SCT,0.20,VWS V14.01,2013-09-25 04:02:00,
2013-09-24 21:07:00,43.5,35.5,29.82,SSE,160,0.0,3.1,73,0.00,,SCT,0.20,VWS V14.01,2013-09-25 04:07:00,
2013-09-24 21:13:00,43.5,35.5,29.82,SSE,160,0.0,3.1,73,0.00,,SCT,0.20,VWS V14.01,2013-09-25 04:13:00,
2013-09-24 21:18:00,43.5,36.5,29.82,SSE,160,0.0,0.0,76,0.00,,SCT,0.20,VWS V14.01,2013-09-25 04:18:00,
2013-09-24 21:23:00,43.2,36.5,29.82,SSE,160,0.0,0.0,77,0.00,,SCT,0.20,VWS V14.01,2013-09-25 04:23:00,
2013-09-24 21:28:00,42.8,36.4,29.82,South,177,0.0,0.0,78,0.00,,SCT,0.20,VWS V14.01,2013-09-25 04:28:00,
2013-09-24 21:33:00,42.4,36.7,29.82,NNW,330,0.0,0.0,80,0.00,,SCT,0.20,VWS V14.01,2013-09-25 04:33:00,
2013-09-24 21:38:00,42.3,36.9,29.82,NNW,340,0.0,0.0,81,0.00,,SCT,0.20,VWS V14.01,2013-09-25 04:38:00,
2013-09-24 21:43:00,42.1,37.0,29.82,NE,36,0.0,0.0,82,0.00,,SCT,0.20,VWS V14.01,2013-09-25 04:43:00,
2013-09-24 21:48:00,42.1,37.0,29.82,NNE,21,0.0,0.0,82,0.00,,SCT,0.20,VWS V14.01,2013-09-25 04:48:00,
2013-09-24 21:53:00,41.9,36.8,29.82,NNE,21,0.0,0.0,82,0.00,,SCT,0.20,VWS V14.01,2013-09-25 04:53:00,
2013-09-24 21:58:00,41.7,37.0,29.82,NNE,21,0.0,0.0,83,0.00,,SCT,0.20,VWS V14.01,2013-09-25 04:58:00,
2013-09-24 22:03:00,41.7,37.0,29.82,NNE,21,0.0,0.0,83,0.00,,SCT,0.20,VWS V14.01,2013-09-25 05:03:00,
2013-09-24 22:08:00,41.7,37.0,29.82,NNE,21,0.0,0.0,83,0.00,,SCT,0.20,VWS V14.01,2013-09-25 05:08:00,
2013-09-24 22:13:00,41.7,37.2,29.82,NNE,21,0.0,0.0,84,0.00,,SCT,0.20,VWS V14.01,2013-09-25 05:13:00,
2013-09-24 22:19:00,41.7,37.2,29.82,NNE,21,0.0,0.0,84,0.00,,SCT,0.20,VWS V14.01,2013-09-25 05:19:00,
2013-09-24 22:24:00,41.7,37.2,29.82,NNE,21,0.0,0.0,84,0.00,,SCT,0.20,VWS V14.01,2013-09-25 05:24:00,
2013-09-24 22:29:00,41.7,37.2,29.82,NNE,21,0.0,0.0,84,0.00,,SCT,0.20,VWS V14.01,2013-09-25 05:29:00,
2013-09-24 22:34:00,41.7,37.2,29.82,NNE,21,0.0,0.0,84,0.00,,SCT,0.20,VWS V14.01,2013-09-25 05:34:00,
2013-09-24 22:39:00,41.7,37.2,29.82,NNE,21,0.0,0.0,84,0.00,,SCT,0.20,VWS V14.01,2013-09-25 05:39:00,
2013-09-24 22:44:00,41.7,37.2,29.82,NNE,21,0.0,0.0,84,0.00,,SCT,0.20,VWS V14.01,2013-09-25 05:44:00,
2013-09-24 22:49:00,41.5,37.1,29.82,NNE,21,0.0,0.0,84,0.00,,SCT,0.20,VWS V14.01,2013-09-25 05:49:00,
2013-09-24 22:54:00,41.2,36.7,29.82,NNE,21,0.0,0.0,84,0.00,,SCT,0.20,VWS V14.01,2013-09-25 05:54:00,
2013-09-24 22:59:00,41.0,36.5,29.82,NNE,21,0.0,0.0,84,0.00,,SCT,0.20,VWS V14.01,2013-09-25 05:59:00,
2013-09-24 23:04:00,41.0,36.5,29.82,NNE,21,0.0,0.0,84,0.00,,SCT,0.20,VWS V14.01,2013-09-25 06:04:00,
2013-09-24 23:10:00,41.0,36.5,29.82,NNE,21,0.0,0.0,84,0.00,,SCT,0.20,VWS V14.01,2013-09-25 06:10:00,
2013-09-24 23:15:00,41.0,36.5,29.82,NNE,21,0.0,0.0,84,0.00,,SCT,0.20,VWS V14.01,2013-09-25 06:15:00,
2013-09-24 23:20:00,41.4,37.2,29.79,NNE,21,0.0,0.0,85,0.00,,SCT,0.20,VWS V14.01,2013-09-25 06:20:00,
2013-09-24 23:25:00,41.2,36.7,29.79,ESE,106,0.0,0.0,84,0.00,,SCT,0.20,VWS V14.01,2013-09-25 06:25:00,
2013-09-24 23:30:00,40.8,36.1,29.79,SSE,149,0.0,0.0,83,0.00,,SCT,0.20,VWS V14.01,2013-09-25 06:30:00,
2013-09-24 23:35:00,40.6,35.6,29.79,ESE,103,0.0,0.0,82,0.00,,SCT,0.20,VWS V14.01,2013-09-25 06:35:00,
2013-09-24 23:40:00,40.6,35.3,29.79,ESE,118,0.0,0.0,81,0.00,,SCT,0.20,VWS V14.01,2013-09-25 06:40:00,
2013-09-24 23:45:00,40.5,34.5,29.79,SSE,165,0.0,0.0,79,0.00,,SCT,0.20,VWS V14.01,2013-09-25 06:45:00,
2013-09-24 23:50:00,40.3,34.3,29.79,SE,141,0.0,3.6,79,0.00,,SCT,0.20,VWS V14.01,2013-09-25 06:50:00,
2013-09-24 23:55:00,40.3,34.3,29.79,SSE,166,3.1,5.8,79,0.00,,SCT,0.20,VWS V14.01,2013-09-25 06:55:00,